SCP
-0 -0 -0 -0 -0 -0 -0 -0 -0 -0 -0 -0 -0 -0 -0 -0 -0 -0 -0 -0 0 0 0 0 0 -0 -0 -0 0 0 -0 -0 0 -0 -0 0 0 0 0 -0 0 0 -0 -0 -0
-0 -0 -0 -0 -0 -0 -0 -0 -0 -0 -0 -0 -0 -0 -0 -0 0 -0 -0 -0 0 0 -0 -0 0 0 -0 0 0 -0 0 0 -0 -0 0 0 0 0 0 0 0 0 -0 -0 -0
-0 -0 -0 -0 -0 -0 -0 -0 -0 -0 -0 -0 -0 -0 -0 0 0 -0 0 -0 0 0 -0 -0 0 0 0 -0 -0 -0 0 0 -0 -0 0 0 0 0 0 0 -0 -0 -0 -0 -0
-0 -0 -0 -0 -0 -0 -0 -0 -0 -0 -0 -0 -0 -0 -0 0 -0 0 -0 -0 0 0 -0 -0 -0 0 0 0 -0 -0 0 0 -0 -0 0 0 0 0 0 -0 -0 -0 -0 -0 -0
-0 -0 -0 -0 -0 -0 -0 -0 0 -0 -0 -0 -0 -0 0 0 -0 0 -0 0 -0 -0 -0 -0 -0 0 0 0 -0 -0 0 -0 0 -0 -0 0 0 0 0 0 -0 -0 -0 -0 -0
-0 -0 -0 -0 -0 -0 -0 -0 -0 -0 -0 -0 -0 0 0 -0 -0 -0 0 -0 -0 -0 -0 -0 -0 0 0 -0 -0 0 0 0 0 0 0 -0 0 0 -0 -0 -0 -0 -0 -0 -0
-0 -0 -0 -0 -0 -0 -0 -0 -0 -0 -0 -0 0 0 -0 -0 0 -0 -0 -0 0 -0 -0 -0 -0 -0 -0 0 -0 -0 -0 -0 0 0 0 0 -0 -0 0 -0 -0 -0 -0 -0 -0
-0 -0 -0 -0 -0 -0 -0 -0 -0 -0 -0 0 0 0 0 0 0 0 -0 0 0 -0 -0 -0 -0 -0 -0 -0 0 -0 -0 -0 -0 0 0 0 0 0 -0 -0 -0 -0 -0 -0 -0
-0 -0 -0 -0 -0 -0 -0 -0 -0 0 0 0 0 -0 -0 -0 -0 -0 -0 -0 0 -0 -0 -0 -0 -0 -0 -0 -0 0 0 0 0 0 0 0 -0 0 -0 -0 -0 -0 -0 -0 -0
-0 -0 -0 -0 -0 -0 -0 0 0 0 0 0 0 0 0 0 0 -0 -0 -0 -0 0 0 0 0 -0 -0 -0 0 0 -0 0 0 0 0 0 -0 -0 0 -0 -0 -0 -0 -0 -0
-0 -0 -0 -0 0 0 0 0 0 0 0 0 0 0 0 0 0 0 0 0 0 0 0 0 0 -0 -0 -0 -0 0 0 0 -0 0 0 -0 -0 -0 -0 -0 -0 -0 -0 -0 -0
-0 -0 -0 0 0 0 0 0 -0 -0 0 0 0 -0 -0 0 0 0 0 0 0 0 0 0 -0 -0 -0 -0 -0 0 0 0 0 0 0 0 -0 -0 -0 -0 -0 -0 -0 -0 0
-0 -0 0 0 0 0 0 0 0 0 0 0 0 -0 -0 0 0 -0 0 0 0 0 0 0 0 0 0 0 0 0 0 0 0 0 0 0 -0 0 0 0 -0 0 0 0 -0
-0 -0 -0 0 0 0 0 0 0 0 0 0 0 0 0 0 0 0 0 0 0 0 0 0 -0 0 0 0 0 0 0 0 0 0 0 0 -0 -0 -0 -0 0 0 0 0 0
-0 -0 -0 0 0 0 0 0 0 0 0 0 -0 -0 0 0 0 0 0 0 0 0 0 0 0 0 0 0 0 0 0 0 0 0 0 0 0 0 0 -0 -0 -0 -0 -0 -0
-0 -0 0 0 0 0 0 0 0 0 0 0 0 -0 0 -0 -0 0 0 0 0 0 0 0 0 0 0 0 0 0 0 0 0 0 0 0 -0 -0 -0 -0 0 0 -0 -0 -0
-0 -0 0 0 0 0 0 0 0 0 0 0 0 -0 0 0 -0 0 0 0 0 0 0 0 0 0 0 0 0 0 0 0 0 0 0 0 0 0 -0 -0 -0 0 -0 -0 -0
-0 -0 -0 -0 0 0 0 0 0 0 0 0 0 -0 0 0 0 0 0 0 0 0 0 0 0 0 0 0 0 0 0 0 0 0 0 0 0 -0 0 -0 0 -0 0 -0 -0
-0 -0 -0 0 -0 0 0 0 0 0 0 0 0 0 0 0 0 0 0 0 0 0 0 0 0 0 0 0 0 0 0 0 0 0 0 0 0 0 0 0 0 0 -0 -0 -0
0 -0 -0 0 -0 0 0 0 0 0 0 0 0 0 0 0 0 0 0 0 0 0 0 0 0 -0 0 0 0 0 0 0 0 0 0 0 0 0 0 -0 -0 0 -0 -0 -0
0 0 0 -0 -0 0 0 0 0 0 0 0 0 0 0 0 0 0 0 0 0 0 0 0 0 0 0 0 0 0 0 0 0 0 0 0 0 -0 0 0 -0 0 -0 -0 -0
0 0 0 -0 0 0 0 0 0 0 0 0 0 0 0 0 0 0 0 0 0 0 0 0 0 0 0 0 0 0 0 0 0 0 0 0 0 0 0 0 0 0 0 -0 -0
0 0 0 0 0 0 0 0 0 0 0 0 0 0 0 0 0 0 0 0 0 0 0 0 0 0 0 0 0 0 0 0 0 0 0 0 0 0 0 0 0 0 0 0 0
0 0 0 0 0 0 0 0 0 0 0 0 0 0 0 0 0 0 0 0 0 0 0 0 0 0 0 0 0 0 0 0 0 0 0 0 0 0 0 0 0 0 0 0 0
0 0 0 0 0 0 0 0 0 0 0 0 0 0 0 0 0 0 0 0 0 0 0 0 0 0 0 0 0 0 0 0 0 0 0 0 0 0 0 0 0 0 0 0 0
0 0 0 0 0 0 0 0 0 0 0 0 0 0 0 0 0 0 0 0 0 0 0 0 0 0 0 0 0 0 0 0 0 0 0 0 0 0 0 0 0 0 0 0 -0
0 0 0 0 0 0 0 0 0 0 0 0 0 0 0 0 0 0 0 0 0 0 0 0 0 0 0 0 0 0 0 0 0 0 0 0 0 1 0 0 0 0 -0 0 0
Wind_Speed_500mb
10 9 8 9 9 9 9 8 7 5 5 6 8 7 7 7 9 12 18 13 13 5 5 11 15 21 23 7 3 3 7 3 5 7 5 5 6 3 7 25 8 13 8 8 39
11 11 9 9 9 9 9 9 8 6 5 6 8 8 7 9 13 17 9 20 19 11 10 11 18 23 10 3 3 5 5 9 7 4 3 4 8 13 8 9 3 8 8 25 46
13 13 12 10 10 10 10 9 8 8 6 7 8 9 7 8 11 3 12 20 24 19 11 9 14 16 9 11 4 5 6 2 7 10 10 7 10 9 21 6 18 28 35 51 48
13 13 13 12 11 11 11 10 9 8 7 7 9 9 8 5 5 4 9 13 16 16 10 7 14 15 7 9 15 7 5 4 6 4 3 6 10 8 23 12 14 28 41 51 50
14 14 14 14 13 12 11 11 10 9 7 7 9 10 9 10 10 8 6 12 15 13 8 6 12 10 8 11 20 2 4 4 6 10 10 8 7 8 23 22 19 34 47 46 44
16 15 15 15 14 13 13 12 11 10 8 8 9 11 12 7 12 13 6 10 16 14 6 4 5 16 7 6 2 8 7 6 5 7 6 8 4 4 11 24 31 40 52 48 44
18 17 16 15 14 14 13 12 11 10 9 9 9 12 20 25 13 12 15 7 8 17 10 8 10 8 15 15 6 4 8 12 9 6 6 8 12 18 16 27 42 44 48 47 44
21 19 18 17 15 14 14 12 10 8 9 9 10 13 16 12 30 21 23 15 14 11 14 13 10 17 3 10 10 6 7 9 6 7 6 13 17 10 25 36 44 47 48 48 48
23 21 20 18 15 14 13 11 9 8 10 11 11 10 14 10 32 30 25 15 12 8 8 11 11 5 3 7 10 12 6 6 14 19 6 10 16 5 33 43 47 52 54 55 52
25 23 21 20 15 12 11 10 7 7 11 13 17 9 10 4 7 35 32 23 13 7 5 4 5 5 7 9 5 7 10 10 16 6 9 9 37 15 23 46 53 58 60 59 55
27 24 22 20 16 10 9 6 4 7 20 16 2 5 3 5 2 23 39 31 17 3 0 7 9 11 17 12 10 6 7 12 36 16 11 22 31 35 21 40 35 51 62 64 66
28 24 21 19 15 11 11 6 2 3 15 25 42 44 42 26 10 8 44 24 9 8 4 11 12 19 5 6 8 7 10 17 24 13 15 6 26 22 17 25 52 55 58 65 56
28 23 20 18 13 10 9 7 4 13 4 11 13 24 30 19 16 16 40 27 8 9 8 12 16 9 7 4 8 7 9 10 13 13 2 6 13 13 4 20 34 58 57 61 55
28 22 16 13 5 9 17 3 7 6 9 9 4 1 19 12 7 21 33 32 4 20 14 13 11 14 7 10 13 12 12 11 13 1 7 8 12 10 7 15 14 36 51 54 56
28 17 10 9 9 13 3 5 8 1 7 6 3 9 22 14 5 13 36 34 18 12 14 18 7 9 7 12 12 18 9 10 7 6 4 4 3 16 8 15 15 31 52 60 59
18 10 3 8 17 11 5 6 7 10 4 8 9 8 9 3 3 9 9 8 9 9 5 15 2 11 15 10 12 9 7 5 7 6 5 7 6 18 5 13 10 11 46 63 65
16 10 4 11 19 9 7 7 9 8 7 12 3 6 5 4 1 4 11 11 11 5 7 12 13 12 12 9 2 9 11 8 9 9 11 5 2 18 20 17 15 16 34 60 68
14 16 8 17 12 11 6 9 6 2 7 8 7 5 8 2 7 10 7 10 5 10 5 2 18 5 2 15 9 10 14 10 9 7 12 4 9 12 12 30 20 18 17 37 69
10 14 15 11 7 10 3 7 7 5 6 13 9 12 12 9 6 6 7 9 6 12 14 6 15 7 11 10 13 5 8 9 11 6 3 6 15 21 6 16 3 9 23 41 57
6 12 15 7 7 5 9 7 7 10 8 0 2 4 4 9 7 10 6 9 11 4 8 6 9 10 19 7 3 10 12 4 5 4 6 10 11 11 20 21 5 11 28 38 48
5 8 11 19 9 2 6 10 9 12 7 3 1 6 5 3 3 4 5 5 9 14 5 0 6 14 4 6 12 4 2 11 8 8 10 4 12 14 14 21 23 18 25 38 47
5 6 10 9 6 4 3 6 9 9 18 11 10 8 4 5 4 4 5 3 28 9 6 6 6 6 16 9 5 4 6 9 9 8 1 6 13 7 14 18 26 37 19 17 40
6 7 11 3 5 6 11 7 7 15 12 11 10 9 7 5 4 4 2 3 24 9 5 6 3 7 19 10 10 12 6 7 9 5 10 11 11 8 18 22 41 35 43 12 19
3 4 5 3 9 6 6 6 7 12 11 12 6 11 10 11 10 4 4 2 13 6 12 6 4 12 12 10 2 8 6 4 4 3 10 10 14 17 21 19 37 58 52 30 18
11 5 5 3 6 6 2 5 6 10 10 21 7 7 2 3 8 2 3 10 9 3 4 8 5 8 13 12 8 14 17 15 11 13 10 12 16 18 18 17 41 57 50 39 33
10 8 6 6 7 2 8 5 4 9 7 6 5 6 2 8 4 7 3 5 12 2 3 3 7 3 13 17 23 24 24 17 22 25 15 14 18 9 29 33 38 43 38 44 48
21 14 6 10 6 5 1 4 5 4 7 10 4 4 3 3 19 30 33 31 20 10 6 9 10 4 11 8 9 14 20 30 20 14 17 17 15 7 13 21 34 44 54 57 60
Wind_Direction_500mb
1 1 356 347 342 343 340 336 327 301 254 240 234 241 259 274 274 257 234 201 226 260 350 358 359 350 333 323 248 181 68 257 231 182 267 153 132 84 101 135 149 198 233 249 167
352 350 346 340 332 332 331 332 327 309 280 256 247 249 262 280 283 271 217 204 224 252 302 335 354 353 351 307 180 129 109 233 218 206 235 182 162 149 135 140 96 168 198 172 168
346 343 339 333 326 321 321 321 321 315 296 269 253 248 260 295 307 158 184 203 215 237 259 325 355 358 342 344 323 174 210 276 293 255 274 197 137 185 153 189 198 177 163 169 174
340 337 332 328 325 317 312 309 307 306 293 272 255 249 251 260 175 136 182 194 202 215 232 331 359 359 30 0 358 320 297 171 283 312 159 182 160 190 191 211 212 190 171 174 185
339 333 326 323 323 317 309 302 297 291 284 271 258 248 244 241 244 180 124 189 192 209 237 340 23 352 19 327 329 232 260 302 306 304 290 207 205 221 230 236 201 183 180 182 189
339 331 324 320 317 315 310 303 291 281 272 266 260 252 239 247 230 238 259 211 219 226 254 330 347 326 328 307 125 320 286 275 255 285 257 220 214 222 262 212 188 188 189 194 198
336 330 324 317 312 311 306 301 293 275 254 252 256 254 246 239 221 213 213 208 226 245 259 312 318 320 328 327 337 333 312 331 258 232 244 216 280 236 230 190 183 189 195 199 202
333 329 323 317 311 306 302 301 300 265 242 243 257 267 254 234 225 197 189 204 204 221 239 281 324 296 279 317 338 347 46 353 280 155 233 146 274 298 204 185 191 193 202 210 212
330 326 319 313 310 307 301 297 288 249 231 235 253 255 263 243 214 208 200 193 189 201 251 285 327 280 45 57 359 9 303 293 314 210 125 180 270 274 192 195 196 202 207 211 217
327 322 317 312 310 303 290 285 274 248 230 236 242 286 244 113 189 205 198 200 213 279 281 185 152 53 45 70 257 320 325 298 263 287 223 208 259 236 200 199 201 209 213 215 218
325 320 314 308 306 295 272 263 263 270 229 217 227 214 202 9 14 198 199 204 234 235 183 26 52 244 251 194 201 238 242 261 290 255 241 223 250 265 199 218 218 211 215 218 221
323 317 310 304 303 281 243 211 208 324 300 266 249 254 252 257 318 182 197 191 156 198 94 16 267 249 189 191 211 222 280 284 282 289 182 149 250 269 203 217 219 219 214 220 220
322 314 307 303 297 256 216 173 279 307 280 288 250 247 248 234 219 204 188 188 141 164 188 177 236 105 161 268 299 247 213 274 244 337 275 3 285 260 278 230 229 229 221 219 216
322 313 302 300 270 149 135 49 302 190 55 280 274 269 163 146 233 206 191 185 168 196 152 243 258 233 236 249 163 298 182 251 276 156 247 139 287 280 296 281 227 219 215 214 210
323 313 286 231 152 139 97 36 122 138 62 326 130 145 163 174 120 196 193 193 180 183 134 240 221 197 196 226 159 238 328 299 308 194 359 307 59 272 342 293 256 220 212 212 209
344 333 282 195 166 145 74 120 135 43 21 8 129 146 123 274 11 112 172 210 220 151 271 245 283 173 218 269 179 262 308 37 51 83 7 268 140 287 253 239 287 235 211 212 213
12 33 88 145 148 144 132 155 42 105 322 327 25 134 125 172 149 115 158 167 172 147 284 330 261 243 200 300 62 97 58 334 346 2 227 275 76 240 275 271 248 228 213 213 211
40 43 75 141 133 142 147 48 87 279 285 327 15 80 100 60 53 6 48 4 336 84 109 193 315 183 88 183 190 190 155 164 237 235 264 293 254 264 228 298 323 244 226 206 211
39 54 64 133 135 165 151 70 219 212 282 327 346 67 6 8 107 96 89 350 303 178 197 191 264 266 196 174 139 238 208 188 112 5 40 268 297 302 294 312 82 251 182 197 210
34 72 61 116 131 134 78 227 237 212 302 107 82 68 114 331 52 55 40 300 322 301 217 249 280 240 279 190 163 177 163 59 14 197 230 294 283 239 308 313 326 235 222 212 208
101 90 52 116 131 43 138 227 278 313 348 219 84 89 89 359 45 82 357 207 357 318 64 257 147 286 19 206 216 70 293 51 121 139 170 205 266 217 260 286 297 276 249 234 216
83 66 128 147 38 40 141 206 329 327 12 34 78 72 121 42 60 84 122 315 349 325 1 351 135 282 243 282 297 172 127 133 129 229 220 161 269 244 278 287 299 297 296 257 228
67 94 158 166 89 346 320 323 28 11 23 17 47 37 24 72 138 133 87 298 7 39 34 327 348 354 336 352 12 51 347 118 113 90 200 146 258 290 322 332 341 323 321 282 214
54 59 81 153 80 120 14 349 354 36 47 55 59 58 53 27 12 141 334 297 333 0 25 139 140 187 207 229 206 292 321 326 129 158 173 228 285 312 309 311 317 321 325 277 215
40 60 49 322 11 30 65 346 4 10 26 39 46 60 114 73 3 345 294 322 291 293 45 99 249 227 246 252 268 249 259 237 221 233 198 244 216 256 274 292 298 308 314 292 247
54 23 11 17 334 63 6 21 32 331 33 2 73 315 44 127 164 272 343 242 239 303 82 13 257 208 274 267 249 253 254 231 235 241 246 252 265 222 297 309 300 317 317 296 271
33 14 7 1 7 85 331 304 1 331 67 65 349 126 149 218 298 280 266 254 243 204 219 185 179 118 261 315 325 296 239 234 232 198 195 203 225 357 307 311 303 316 319 305 293
Wind_Speed_850mb
10 9 8 9 9 9 9 8 7 5 5 6 8 7 7 7 9 12 18 13 13 5 5 11 15 21 23 7 3 3 7 3 5 7 5 5 6 3 7 25 8 13 8 8 39
11 11 9 9 9 9 9 9 8 6 5 6 8 8 7 9 13 17 9 20 19 11 10 11 18 23 10 3 3 5 5 9 7 4 3 4 8 13 8 9 3 8 8 25 46
13 13 12 10 10 10 10 9 8 8 6 7 8 9 7 8 11 3 12 20 24 19 11 9 14 16 9 11 4 5 6 2 7 10 10 7 10 9 21 6 18 28 35 51 48
13 13 13 12 11 11 11 10 9 8 7 7 9 9 8 5 5 4 9 13 16 16 10 7 14 15 7 9 15 7 5 4 6 4 3 6 10 8 23 12 14 28 41 51 50
14 14 14 14 13 12 11 11 10 9 7 7 9 10 9 10 10 8 6 12 15 13 8 6 12 10 8 11 20 2 4 4 6 10 10 8 7 8 23 22 19 34 47 46 44
16 15 15 15 14 13 13 12 11 10 8 8 9 11 12 7 12 13 6 10 16 14 6 4 5 16 7 6 2 8 7 6 5 7 6 8 4 4 11 24 31 40 52 48 44
18 17 16 15 14 14 13 12 11 10 9 9 9 12 20 25 13 12 15 7 8 17 10 8 10 8 15 15 6 4 8 12 9 6 6 8 12 18 16 27 42 44 48 47 44
21 19 18 17 15 14 14 12 10 8 9 9 10 13 16 12 30 21 23 15 14 11 14 13 10 17 3 10 10 6 7 9 6 7 6 13 17 10 25 36 44 47 48 48 48
23 21 20 18 15 14 13 11 9 8 10 11 11 10 14 10 32 30 25 15 12 8 8 11 11 5 3 7 10 12 6 6 14 19 6 10 16 5 33 43 47 52 54 55 52
25 23 21 20 15 12 11 10 7 7 11 13 17 9 10 4 7 35 32 23 13 7 5 4 5 5 7 9 5 7 10 10 16 6 9 9 37 15 23 46 53 58 60 59 55
27 24 22 20 16 10 9 6 4 7 20 16 2 5 3 5 2 23 39 31 17 3 0 7 9 11 17 12 10 6 7 12 36 16 11 22 31 35 21 40 35 51 62 64 66
28 24 21 19 15 11 11 6 2 3 15 25 42 44 42 26 10 8 44 24 9 8 4 11 12 19 5 6 8 7 10 17 24 13 15 6 26 22 17 25 52 55 58 65 56
28 23 20 18 13 10 9 7 4 13 4 11 13 24 30 19 16 16 40 27 8 9 8 12 16 9 7 4 8 7 9 10 13 13 2 6 13 13 4 20 34 58 57 61 55
28 22 16 13 5 9 17 3 7 6 9 9 4 1 19 12 7 21 33 32 4 20 14 13 11 14 7 10 13 12 12 11 13 1 7 8 12 10 7 15 14 36 51 54 56
28 17 10 9 9 13 3 5 8 1 7 6 3 9 22 14 5 13 36 34 18 12 14 18 7 9 7 12 12 18 9 10 7 6 4 4 3 16 8 15 15 31 52 60 59
18 10 3 8 17 11 5 6 7 10 4 8 9 8 9 3 3 9 9 8 9 9 5 15 2 11 15 10 12 9 7 5 7 6 5 7 6 18 5 13 10 11 46 63 65
16 10 4 11 19 9 7 7 9 8 7 12 3 6 5 4 1 4 11 11 11 5 7 12 13 12 12 9 2 9 11 8 9 9 11 5 2 18 20 17 15 16 34 60 68
14 16 8 17 12 11 6 9 6 2 7 8 7 5 8 2 7 10 7 10 5 10 5 2 18 5 2 15 9 10 14 10 9 7 12 4 9 12 12 30 20 18 17 37 69
10 14 15 11 7 10 3 7 7 5 6 13 9 12 12 9 6 6 7 9 6 12 14 6 15 7 11 10 13 5 8 9 11 6 3 6 15 21 6 16 3 9 23 41 57
6 12 15 7 7 5 9 7 7 10 8 0 2 4 4 9 7 10 6 9 11 4 8 6 9 10 19 7 3 10 12 4 5 4 6 10 11 11 20 21 5 11 28 38 48
5 8 11 19 9 2 6 10 9 12 7 3 1 6 5 3 3 4 5 5 9 14 5 0 6 14 4 6 12 4 2 11 8 8 10 4 12 14 14 21 23 18 25 38 47
5 6 10 9 6 4 3 6 9 9 18 11 10 8 4 5 4 4 5 3 28 9 6 6 6 6 16 9 5 4 6 9 9 8 1 6 13 7 14 18 26 37 19 17 40
6 7 11 3 5 6 11 7 7 15 12 11 10 9 7 5 4 4 2 3 24 9 5 6 3 7 19 10 10 12 6 7 9 5 10 11 11 8 18 22 41 35 43 12 19
3 4 5 3 9 6 6 6 7 12 11 12 6 11 10 11 10 4 4 2 13 6 12 6 4 12 12 10 2 8 6 4 4 3 10 10 14 17 21 19 37 58 52 30 18
11 5 5 3 6 6 2 5 6 10 10 21 7 7 2 3 8 2 3 10 9 3 4 8 5 8 13 12 8 14 17 15 11 13 10 12 16 18 18 17 41 57 50 39 33
10 8 6 6 7 2 8 5 4 9 7 6 5 6 2 8 4 7 3 5 12 2 3 3 7 3 13 17 23 24 24 17 22 25 15 14 18 9 29 33 38 43 38 44 48
21 14 6 10 6 5 1 4 5 4 7 10 4 4 3 3 19 30 33 31 20 10 6 9 10 4 11 8 9 14 20 30 20 14 17 17 15 7 13 21 34 44 54 57 60
Wind_Direction_850mb
1 1 356 347 342 343 340 336 327 301 254 240 234 241 259 274 274 257 234 201 226 260 350 358 359 350 333 323 248 181 68 257 231 182 267 153 132 84 101 135 149 198 233 249 167
352 350 346 340 332 332 331 332 327 309 280 256 247 249 262 280 283 271 217 204 224 252 302 335 354 353 351 307 180 129 109 233 218 206 235 182 162 149 135 140 96 168 198 172 168
346 343 339 333 326 321 321 321 321 315 296 269 253 248 260 295 307 158 184 203 215 237 259 325 355 358 342 344 323 174 210 276 293 255 274 197 137 185 153 189 198 177 163 169 174
340 337 332 328 325 317 312 309 307 306 293 272 255 249 251 260 175 136 182 194 202 215 232 331 359 359 30 0 358 320 297 171 283 312 159 182 160 190 191 211 212 190 171 174 185
339 333 326 323 323 317 309 302 297 291 284 271 258 248 244 241 244 180 124 189 192 209 237 340 23 352 19 327 329 232 260 302 306 304 290 207 205 221 230 236 201 183 180 182 189
339 331 324 320 317 315 310 303 291 281 272 266 260 252 239 247 230 238 259 211 219 226 254 330 347 326 328 307 125 320 286 275 255 285 257 220 214 222 262 212 188 188 189 194 198
336 330 324 317 312 311 306 301 293 275 254 252 256 254 246 239 221 213 213 208 226 245 259 312 318 320 328 327 337 333 312 331 258 232 244 216 280 236 230 190 183 189 195 199 202
333 329 323 317 311 306 302 301 300 265 242 243 257 267 254 234 225 197 189 204 204 221 239 281 324 296 279 317 338 347 46 353 280 155 233 146 274 298 204 185 191 193 202 210 212
330 326 319 313 310 307 301 297 288 249 231 235 253 255 263 243 214 208 200 193 189 201 251 285 327 280 45 57 359 9 303 293 314 210 125 180 270 274 192 195 196 202 207 211 217
327 322 317 312 310 303 290 285 274 248 230 236 242 286 244 113 189 205 198 200 213 279 281 185 152 53 45 70 257 320 325 298 263 287 223 208 259 236 200 199 201 209 213 215 218
325 320 314 308 306 295 272 263 263 270 229 217 227 214 202 9 14 198 199 204 234 235 183 26 52 244 251 194 201 238 242 261 290 255 241 223 250 265 199 218 218 211 215 218 221
323 317 310 304 303 281 243 211 208 324 300 266 249 254 252 257 318 182 197 191 156 198 94 16 267 249 189 191 211 222 280 284 282 289 182 149 250 269 203 217 219 219 214 220 220
322 314 307 303 297 256 216 173 279 307 280 288 250 247 248 234 219 204 188 188 141 164 188 177 236 105 161 268 299 247 213 274 244 337 275 3 285 260 278 230 229 229 221 219 216
322 313 302 300 270 149 135 49 302 190 55 280 274 269 163 146 233 206 191 185 168 196 152 243 258 233 236 249 163 298 182 251 276 156 247 139 287 280 296 281 227 219 215 214 210
323 313 286 231 152 139 97 36 122 138 62 326 130 145 163 174 120 196 193 193 180 183 134 240 221 197 196 226 159 238 328 299 308 194 359 307 59 272 342 293 256 220 212 212 209
344 333 282 195 166 145 74 120 135 43 21 8 129 146 123 274 11 112 172 210 220 151 271 245 283 173 218 269 179 262 308 37 51 83 7 268 140 287 253 239 287 235 211 212 213
12 33 88 145 148 144 132 155 42 105 322 327 25 134 125 172 149 115 158 167 172 147 284 330 261 243 200 300 62 97 58 334 346 2 227 275 76 240 275 271 248 228 213 213 211
40 43 75 141 133 142 147 48 87 279 285 327 15 80 100 60 53 6 48 4 336 84 109 193 315 183 88 183 190 190 155 164 237 235 264 293 254 264 228 298 323 244 226 206 211
39 54 64 133 135 165 151 70 219 212 282 327 346 67 6 8 107 96 89 350 303 178 197 191 264 266 196 174 139 238 208 188 112 5 40 268 297 302 294 312 82 251 182 197 210
34 72 61 116 131 134 78 227 237 212 302 107 82 68 114 331 52 55 40 300 322 301 217 249 280 240 279 190 163 177 163 59 14 197 230 294 283 239 308 313 326 235 222 212 208
101 90 52 116 131 43 138 227 278 313 348 219 84 89 89 359 45 82 357 207 357 318 64 257 147 286 19 206 216 70 293 51 121 139 170 205 266 217 260 286 297 276 249 234 216
83 66 128 147 38 40 141 206 329 327 12 34 78 72 121 42 60 84 122 315 349 325 1 351 135 282 243 282 297 172 127 133 129 229 220 161 269 244 278 287 299 297 296 257 228
67 94 158 166 89 346 320 323 28 11 23 17 47 37 24 72 138 133 87 298 7 39 34 327 348 354 336 352 12 51 347 118 113 90 200 146 258 290 322 332 341 323 321 282 214
54 59 81 153 80 120 14 349 354 36 47 55 59 58 53 27 12 141 334 297 333 0 25 139 140 187 207 229 206 292 321 326 129 158 173 228 285 312 309 311 317 321 325 277 215
40 60 49 322 11 30 65 346 4 10 26 39 46 60 114 73 3 345 294 322 291 293 45 99 249 227 246 252 268 249 259 237 221 233 198 244 216 256 274 292 298 308 314 292 247
54 23 11 17 334 63 6 21 32 331 33 2 73 315 44 127 164 272 343 242 239 303 82 13 257 208 274 267 249 253 254 231 235 241 246 252 265 222 297 309 300 317 317 296 271
33 14 7 1 7 85 331 304 1 331 67 65 349 126 149 218 298 280 266 254 243 204 219 185 179 118 261 315 325 296 239 234 232 198 195 203 225 357 307 311 303 316 319 305 293